Location: Wellington
(41.3000°S, 174.7830°E)
Time: 02:53:03
(UTC+12:00)

COSMOS 2428 - Pass Details

Date: 24 January 2019
Orbit: 843 x 858 km, 71.0° (Epoch: 20 April)

Event Time Altitude Azimuth Distance (km) Brightness Sun altitude
Exits shadow 23:03:09 37° 57° (ENE) 1,312 3.2 -20.2°
Maximum altitude 23:03:53 39° 75° (ENE) 1,279 3.2 -20.3°
Drops below altitude 10° 23:09:11 10° 141° (SE) 2,518 5.3 -20.9°
Sets 23:11:49 0° 148° (SSE) 3,463 6.2 -21.2°
